| time (UTC) | temp C | wind direction | speed KPH | gust KPH | rain 1hr cm | rain 24hr cm | rain mn cm | humidity % | barometer mb |
| 20260906195326 | 30 | 82 | 4.8 | 12.9 | 0.00 | 0.00 | 0.00 | 68 | 1013.2 |
| 20260906194832 | 30 | 45 | 4.8 | 12.9 | 0.00 | 0.00 | 0.00 | 69 | 1013.3 |
| 20260906194319 | 30 | 19 | 4.8 | 8.0 | 0.00 | 0.00 | 0.00 | 68 | 1013.3 |
| 20260906193825 | 30 | 76 | 1.6 | 6.4 | 0.00 | 0.00 | 0.00 | 68 | 1013.5 |
| 20260906193314 | 30 | 20 | 3.2 | 6.4 | 0.00 | 0.00 | 0.00 | 68 | 1013.5 |
| 20260906192819 | 30 | 33 | 3.2 | 8.0 | 0.00 | 0.00 | 0.00 | 68 | 1013.6 |
| 20260906192326 | 30 | 28 | 3.2 | 9.7 | 0.00 | 0.00 | 0.00 | 66 | 1013.6 |
| 20260906191811 | 30 | 23 | 4.8 | 9.7 | 0.00 | 0.00 | 0.00 | 66 | 1013.6 |
| 20260906191319 | 30 | 74 | 3.2 | 14.5 | 0.00 | 0.00 | 0.00 | 65 | 1013.5 |
| 20260906190824 | 30 | 25 | 3.2 | 14.5 | 0.00 | 0.00 | 0.00 | 65 | 1013.5 |
| 20260906190329 | 30 | 26 | 3.2 | 8.0 | 0.00 | 0.00 | 0.00 | 64 | 1013.4 |
| 20260906185813 | 31 | 26 | 3.2 | 8.0 | 0.00 | 0.00 | 0.00 | 65 | 1013.6 |
| 20260906185321 | 31 | 90 | 3.2 | 8.0 | 0.00 | 0.00 | 0.00 | 66 | 1013.5 |
| 20260906184825 | 30 | 34 | 3.2 | 12.9 | 0.00 | 0.00 | 0.00 | 66 | 1013.7 |
| 20260906184353 | 30 | 29 | 4.8 | 12.9 | 0.00 | 0.00 | 0.00 | 66 | 1013.9 |
| 20260906183835 | 30 | 74 | 3.2 | 9.7 | 0.00 | 0.00 | 0.00 | 68 | 1013.9 |
| 20260906183340 | 30 | 48 | 1.6 | 9.7 | 0.00 | 0.00 | 0.00 | 63 | 1013.9 |
| 20260906182843 | 30 | 355 | 4.8 | 12.9 | 0.00 | 0.00 | 0.00 | 66 | 1013.9 |
| 20260906182345 | 30 | 146 | 4.8 | 12.9 | 0.00 | 0.00 | 0.00 | 64 | 1014.1 |
| 20260906181810 | 30 | 15 | 4.8 | 12.9 | 0.00 | 0.00 | 0.00 | 65 | 1014.2 |
| 20260906181318 | 30 | 62 | 1.6 | 9.7 | 0.00 | 0.00 | 0.00 | 68 | 1014.3 |
| 20260906180822 | 30 | 186 | 3.2 | 12.9 | 0.00 | 0.00 | 0.00 | 64 | 1014.5 |
| 20260906180328 | 30 | 22 | 4.8 | 12.9 | 0.00 | 0.00 | 0.00 | 64 | 1014.4 |
| 20260906175814 | 30 | 105 | 3.2 | 8.0 | 0.00 | 0.00 | 0.00 | 66 | 1014.5 |
| 20260906175321 | 30 | 329 | 3.2 | 8.0 | 0.00 | 0.00 | 0.00 | 67 | 1014.5 |
| 20260906174824 | 30 | 355 | 3.2 | 8.0 | 0.00 | 0.00 | 0.00 | 68 | 1014.5 |
| 20260906174331 | 30 | 275 | 1.6 | 6.4 | 0.00 | 0.00 | 0.00 | 71 | 1014.6 |
| 20260906173817 | 29 | 188 | 0.0 | 6.4 | 0.00 | 0.00 | 0.00 | 74 | 1014.5 |
| 20260906173325 | 29 | 127 | 3.2 | 8.0 | 0.00 | 0.00 | 0.00 | 73 | 1014.4 |
| 20260906172829 | 28 | 360 | 4.8 | 8.0 | 0.00 | 0.00 | 0.00 | 71 | 1014.5 |
| 20260906172314 | 28 | 41 | 3.2 | 6.4 | 0.00 | 0.00 | 0.00 | 72 | 1014.7 |
| 20260906171820 | 28 | 44 | 3.2 | 6.4 | 0.00 | 0.00 | 0.00 | 74 | 1014.7 |
| 20260906171327 | 28 | 103 | 1.6 | 9.7 | 0.00 | 0.00 | 0.00 | 71 | 1014.7 |
| 20260906170813 | 28 | 202 | 3.2 | 9.7 | 0.00 | 0.00 | 0.00 | 71 | 1014.5 |
| 20260906170321 | 28 | 115 | 1.6 | 9.7 | 0.00 | 0.00 | 0.00 | 70 | 1014.5 |
| 20260906165828 | 28 | 96 | 3.2 | 6.4 | 0.00 | 0.00 | 0.00 | 68 | 1014.5 |
| 20260906165317 | 28 | 26 | 1.6 | 6.4 | 0.00 | 0.00 | 0.00 | 67 | 1014.5 |
| 20260906164823 | 29 | 47 | 1.6 | 4.8 | 0.00 | 0.00 | 0.00 | 69 | 1014.4 |
| 20260906164330 | 28 | 85 | 1.6 | 3.2 | 0.00 | 0.00 | 0.00 | 70 | 1014.4 |
| 20260906163835 | 28 | 171 | 1.6 | 4.8 | 0.00 | 0.00 | 0.00 | 73 | 1014.3 |
| 20260906163342 | 27 | 31 | 1.6 | 4.8 | 0.00 | 0.00 | 0.00 | 74 | 1014.4 |
| 20260906162846 | 27 | 26 | 0.0 | 0.0 | 0.00 | 0.00 | 0.00 | 80 | 1014.4 |
| 20260906162349 | 26 | 26 | 0.0 | 0.0 | 0.00 | 0.00 | 0.00 | 79 | 1014.2 |
| 20260906161850 | 26 | 355 | 0.0 | 0.0 | 0.00 | 0.00 | 0.00 | 81 | 1014.2 |
| 20260906161314 | 26 | 355 | 0.0 | 0.0 | 0.00 | 0.00 | 0.00 | 84 | 1014.2 |
| 20260906160819 | 25 | 346 | 0.0 | 0.0 | 0.00 | 0.00 | 0.00 | 83 | 1014.2 |
| 20260906160321 | 25 | 195 | 0.0 | 0.0 | 0.00 | 0.00 | 0.00 | 84 | 1014.2 |
| 20260906155811 | 25 | 195 | 0.0 | 0.0 | 0.00 | 0.00 | 0.00 | 84 | 1014.3 |
| 20260906155333 | 25 | 195 | 0.0 | 0.0 | 0.00 | 0.00 | 0.00 | 85 | 1014.2 |
| 20260906154829 | 25 | 195 | 0.0 | 0.0 | 0.00 | 0.00 | 0.00 | 86 | 1014.1 |
| 20260906154317 | 25 | 252 | 0.0 | 0.0 | 0.00 | 0.00 | 0.00 | 85 | 1014.2 |
| 20260906153819 | 24 | 257 | 0.0 | 0.0 | 0.00 | 0.00 | 0.00 | 86 | 1014.1 |
| 20260906153323 | 24 | 49 | 0.0 | 0.0 | 0.00 | 0.00 | 0.00 | 85 | 1014.0 |
| 20260906152829 | 24 | 49 | 0.0 | 0.0 | 0.00 | 0.00 | 0.00 | 86 | 1013.7 |
| 20260906152316 | 24 | 49 | 0.0 | 0.0 | 0.00 | 0.00 | 0.00 | 86 | 1013.6 |
| 20260906151819 | 24 | 49 | 0.0 | 0.0 | 0.00 | 0.00 | 0.00 | 87 | 1013.4 |
| 20260906151326 | 24 | 49 | 0.0 | 1.6 | 0.00 | 0.00 | 0.00 | 88 | 1013.4 |
| 20260906150811 | 23 | 49 | 0.0 | 1.6 | 0.00 | 0.00 | 0.00 | 87 | 1013.4 |
| 20260906150014 | 23 | 48 | 0.0 | 3.2 | 0.00 | 0.00 | 0.00 | 89 | 1013.8 |
| 20260906145328 | 23 | 75 | 0.0 | 0.0 | 0.00 | 0.00 | 0.00 | 88 | 1013.8 |
| 20260906144827 | 23 | 75 | 0.0 | 0.0 | 0.00 | 0.00 | 0.00 | 88 | 1013.8 |
| 20260906144313 | 23 | 75 | 0.0 | 0.0 | 0.00 | 0.00 | 0.00 | 88 | 1013.8 |
| 20260906143821 | 23 | 75 | 0.0 | 0.0 | 0.00 | 0.00 | 0.00 | 88 | 1013.9 |
| 20260906143326 | 23 | 75 | 0.0 | 0.0 | 0.00 | 0.00 | 0.00 | 88 | 1014.1 |
| 20260906142829 | 23 | 75 | 0.0 | 0.0 | 0.00 | 0.00 | 0.00 | 88 | 1014.3 |
| 20260906142318 | 23 | 75 | 0.0 | 3.2 | 0.00 | 0.00 | 0.00 | 88 | 1014.6 |
| 20260906141823 | 23 | 75 | 0.0 | 3.2 | 0.00 | 0.00 | 0.00 | 87 | 1014.8 |
| 20260906141332 | 23 | 75 | 1.6 | 3.2 | 0.00 | 0.00 | 0.00 | 87 | 1014.7 |
| 20260906140815 | 23 | 119 | 1.6 | 8.0 | 0.00 | 0.00 | 0.00 | 86 | 1014.6 |
| 20260906140322 | 23 | 42 | 3.2 | 8.0 | 0.00 | 0.00 | 0.00 | 86 | 1014.5 |
| 20260906135829 | 23 | 77 | 1.6 | 6.4 | 0.00 | 0.00 | 0.00 | 85 | 1014.7 |
| 20260906135337 | 23 | 128 | 0.0 | 4.8 | 0.00 | 0.00 | 0.00 | 86 | 1014.7 |
| 20260906134842 | 23 | 106 | 0.0 | 0.0 | 0.00 | 0.00 | 0.00 | 86 | 1014.5 |
| 20260906134350 | 23 | 345 | 0.0 | 0.0 | 0.00 | 0.00 | 0.00 | 86 | 1014.4 |
| 20260906133836 | 23 | 313 | 0.0 | 0.0 | 0.00 | 0.00 | 0.00 | 85 | 1014.3 |
| 20260906133339 | 23 | 268 | 0.0 | 0.0 | 0.00 | 0.00 | 0.00 | 85 | 1014.3 |
| 20260906132825 | 23 | 268 | 0.0 | 0.0 | 0.00 | 0.00 | 0.00 | 86 | 1014.3 |
| 20260906132313 | 23 | 268 | 0.0 | 0.0 | 0.00 | 0.00 | 0.00 | 85 | 1014.4 |
| 20260906131819 | 23 | 304 | 0.0 | 0.0 | 0.00 | 0.00 | 0.00 | 86 | 1014.4 |
| 20260906131329 | 23 | 304 | 0.0 | 0.0 | 0.00 | 0.00 | 0.00 | 87 | 1014.4 |
| 20260906130814 | 23 | 304 | 0.0 | 0.0 | 0.00 | 0.00 | 0.00 | 87 | 1014.4 |
| 20260906130322 | 23 | 304 | 0.0 | 0.0 | 0.00 | 0.00 | 0.00 | 88 | 1014.6 |
| 20260906125829 | 23 | 304 | 0.0 | 0.0 | 0.00 | 0.00 | 0.00 | 88 | 1014.5 |
| 20260906125317 | 23 | 304 | 0.0 | 0.0 | 0.00 | 0.00 | 0.00 | 88 | 1014.7 |
| 20260906124824 | 23 | 304 | 0.0 | 0.0 | 0.00 | 0.00 | 0.00 | 88 | 1014.8 |
| 20260906124330 | 23 | 304 | 0.0 | 0.0 | 0.00 | 0.00 | 0.00 | 87 | 1014.7 |
| 20260906123816 | 23 | 304 | 0.0 | 0.0 | 0.00 | 0.00 | 0.00 | 87 | 1014.5 |
| 20260906123326 | 23 | 304 | 0.0 | 0.0 | 0.00 | 0.00 | 0.00 | 87 | 1014.3 |
| 20260906122812 | 23 | 304 | 0.0 | 0.0 | 0.00 | 0.00 | 0.00 | 87 | 1014.2 |
| 20260906122320 | 23 | 304 | 0.0 | 0.0 | 0.00 | 0.00 | 0.00 | 87 | 1014.2 |
| 20260906121827 | 23 | 274 | 0.0 | 0.0 | 0.00 | 0.00 | 0.00 | 88 | 1014.2 |
| 20260906121317 | 23 | 274 | 0.0 | 0.0 | 0.00 | 0.00 | 0.00 | 88 | 1014.1 |
| 20260906120823 | 23 | 264 | 0.0 | 0.0 | 0.00 | 0.00 | 0.00 | 88 | 1014.1 |
| 20260906120329 | 23 | 251 | 0.0 | 0.0 | 0.00 | 0.00 | 0.00 | 88 | 1013.9 |
| 20260906115816 | 23 | 251 | 0.0 | 0.0 | 0.00 | 0.00 | 0.00 | 88 | 1013.7 |
| 20260906115326 | 23 | 251 | 0.0 | 1.6 | 0.00 | 0.00 | 0.00 | 88 | 1013.7 |
| 20260906114812 | 23 | 227 | 0.0 | 1.6 | 0.00 | 0.00 | 0.00 | 88 | 1013.6 |
| 20260906114320 | 23 | 227 | 0.0 | 1.6 | 0.00 | 0.00 | 0.00 | 88 | 1013.6 |
| 20260906113827 | 23 | 224 | 0.0 | 0.0 | 0.00 | 0.00 | 0.00 | 88 | 1013.4 |
| 20260906113316 | 23 | 224 | 0.0 | 0.0 | 0.00 | 0.00 | 0.00 | 88 | 1013.4 |
| 20260906112823 | 23 | 224 | 0.0 | 1.6 | 0.00 | 0.00 | 0.00 | 88 | 1013.5 |
| 20260906112312 | 23 | 224 | 0.0 | 6.4 | 0.00 | 0.00 | 0.00 | 88 | 1013.4 |
| 20260906111819 | 23 | 236 | 0.0 | 14.5 | 0.00 | 0.00 | 0.00 | 88 | 1013.4 |
| 20260906111327 | 23 | 238 | 3.2 | 14.5 | 0.00 | 0.00 | 0.00 | 89 | 1012.9 |
| 20260906110814 | 23 | 225 | 3.2 | 9.7 | 0.00 | 0.00 | 0.00 | 91 | 1012.6 |
| 20260906110320 | 23 | 173 | 3.2 | 6.4 | 0.00 | 0.00 | 0.00 | 92 | 1013.5 |
| 20260906105826 | 23 | 243 | 0.0 | 0.0 | 0.00 | 0.00 | 0.00 | 93 | 1012.4 |
| 20260906105315 | 23 | 168 | 0.0 | 1.6 | 0.00 | 0.00 | 0.00 | 92 | 1012.2 |
| 20260906104821 | 23 | 169 | 0.0 | 4.8 | 0.00 | 0.00 | 0.00 | 93 | 1012.1 |
| 20260906104330 | 23 | 168 | 1.6 | 4.8 | 0.00 | 0.00 | 0.00 | 93 | 1012.0 |
| 20260906103817 | 23 | 151 | 0.0 | 0.0 | 0.00 | 0.00 | 0.00 | 93 | 1012.1 |
| 20260906103326 | 23 | 182 | 0.0 | 0.0 | 0.00 | 0.00 | 0.00 | 93 | 1012.1 |
| 20260906102813 | 23 | 182 | 0.0 | 0.0 | 0.00 | 0.00 | 0.00 | 93 | 1012.0 |
| 20260906102322 | 23 | 162 | 0.0 | 0.0 | 0.00 | 0.00 | 0.00 | 93 | 1012.1 |
| 20260906101829 | 23 | 163 | 0.0 | 0.0 | 0.00 | 0.00 | 0.00 | 93 | 1012.1 |
| 20260906101317 | 23 | 90 | 0.0 | 0.0 | 0.00 | 0.00 | 0.00 | 93 | 1012.1 |
| 20260906100823 | 23 | 90 | 0.0 | 0.0 | 0.00 | 0.00 | 0.00 | 93 | 1012.2 |
| 20260906100330 | 23 | 90 | 0.0 | 0.0 | 0.00 | 0.00 | 0.00 | 93 | 1012.3 |
| 20260906095816 | 23 | 90 | 0.0 | 0.0 | 0.00 | 0.00 | 0.00 | 93 | 1012.3 |
| 20260906095326 | 23 | 90 | 0.0 | 0.0 | 0.00 | 0.00 | 0.00 | 93 | 1012.3 |
| 20260906094812 | 23 | 90 | 0.0 | 0.0 | 0.00 | 0.00 | 0.00 | 93 | 1012.2 |
| 20260906094320 | 23 | 90 | 0.0 | 0.0 | 0.00 | 0.00 | 0.00 | 93 | 1012.2 |
| 20260906093827 | 23 | 89 | 0.0 | 0.0 | 0.00 | 0.00 | 0.00 | 93 | 1012.2 |
| 20260906093317 | 23 | 74 | 0.0 | 0.0 | 0.00 | 0.00 | 0.00 | 93 | 1012.2 |
| 20260906092823 | 23 | 74 | 0.0 | 0.0 | 0.00 | 0.00 | 0.00 | 93 | 1012.1 |
| 20260906092331 | 23 | 74 | 0.0 | 0.0 | 0.00 | 0.00 | 0.00 | 93 | 1012.1 |
| 20260906091818 | 23 | 65 | 0.0 | 0.0 | 0.00 | 0.00 | 0.00 | 93 | 1012.0 |
| 20260906091327 | 23 | 104 | 0.0 | 0.0 | 0.00 | 0.00 | 0.00 | 93 | 1011.9 |
| 20260906090813 | 23 | 142 | 0.0 | 0.0 | 0.00 | 0.00 | 0.00 | 93 | 1011.9 |
| 20260906090320 | 23 | 141 | 0.0 | 0.0 | 0.00 | 0.00 | 0.00 | 93 | 1011.8 |
| 20260906085825 | 23 | 165 | 0.0 | 0.0 | 0.00 | 0.00 | 0.00 | 93 | 1011.9 |
| 20260906085314 | 23 | 120 | 0.0 | 0.0 | 0.00 | 0.00 | 0.00 | 93 | 1011.9 |
| 20260906084820 | 23 | 120 | 0.0 | 0.0 | 0.00 | 0.00 | 0.00 | 93 | 1012.0 |
| 20260906084329 | 23 | 171 | 0.0 | 3.2 | 0.00 | 0.00 | 0.00 | 93 | 1012.1 |
| 20260906083815 | 23 | 173 | 0.0 | 3.2 | 0.00 | 0.00 | 0.00 | 93 | 1012.1 |
| 20260906083323 | 23 | 173 | 0.0 | 0.0 | 0.00 | 0.00 | 0.00 | 94 | 1012.1 |
| 20260906082829 | 23 | 134 | 0.0 | 0.0 | 0.00 | 0.00 | 0.00 | 94 | 1012.2 |
| 20260906082315 | 23 | 185 | 0.0 | 0.0 | 0.00 | 0.00 | 0.00 | 94 | 1012.3 |
| 20260906081820 | 23 | 160 | 0.0 | 0.0 | 0.00 | 0.00 | 0.00 | 94 | 1012.3 |
| 20260906081328 | 23 | 95 | 0.0 | 0.0 | 0.00 | 0.00 | 0.00 | 94 | 1012.3 |
| 20260906080813 | 23 | 175 | 0.0 | 0.0 | 0.00 | 0.00 | 0.00 | 94 | 1012.4 |
| 20260906080319 | 24 | 175 | 0.0 | 0.0 | 0.00 | 0.00 | 0.00 | 94 | 1012.4 |
| 20260906075826 | 24 | 175 | 0.0 | 0.0 | 0.00 | 0.00 | 0.00 | 94 | 1012.5 |
| 20260906075314 | 24 | 175 | 0.0 | 0.0 | 0.00 | 0.00 | 0.00 | 94 | 1012.6 |
| 20260906074819 | 24 | 175 | 0.0 | 0.0 | 0.00 | 0.00 | 0.00 | 94 | 1012.6 |
| 20260906074326 | 24 | 175 | 0.0 | 0.0 | 0.00 | 0.00 | 0.00 | 94 | 1012.6 |
| 20260906073812 | 24 | 175 | 0.0 | 0.0 | 0.00 | 0.00 | 0.00 | 94 | 1012.6 |
| 20260906073320 | 24 | 175 | 0.0 | 0.0 | 0.00 | 0.00 | 0.00 | 94 | 1012.5 |
| 20260906072827 | 24 | 175 | 0.0 | 3.2 | 0.00 | 0.00 | 0.00 | 94 | 1012.4 |
| 20260906072316 | 24 | 175 | 0.0 | 3.2 | 0.00 | 0.00 | 0.00 | 94 | 1012.3 |
| 20260906071821 | 24 | 147 | 0.0 | 4.8 | 0.00 | 0.00 | 0.00 | 94 | 1012.2 |
| 20260906071330 | 24 | 131 | 0.0 | 4.8 | 0.00 | 0.00 | 0.00 | 94 | 1012.2 |
| 20260906070816 | 24 | 169 | 1.6 | 4.8 | 0.00 | 0.00 | 0.00 | 94 | 1012.2 |
| 20260906070321 | 25 | 163 | 0.0 | 3.2 | 0.00 | 0.00 | 0.00 | 94 | 1012.2 |
| 20260906065827 | 25 | 154 | 1.6 | 6.4 | 0.00 | 0.00 | 0.00 | 94 | 1012.4 |
| 20260906065315 | 25 | 174 | 1.6 | 8.0 | 0.00 | 0.00 | 0.00 | 94 | 1012.5 |
| 20260906064821 | 25 | 126 | 0.0 | 1.6 | 0.00 | 0.00 | 0.00 | 93 | 1012.4 |
| 20260906064326 | 25 | 164 | 0.0 | 1.6 | 0.00 | 0.00 | 0.00 | 93 | 1012.4 |
| 20260906063816 | 25 | 98 | 0.0 | 3.2 | 0.00 | 0.00 | 0.00 | 93 | 1012.5 |
| 20260906063322 | 25 | 165 | 0.0 | 3.2 | 0.00 | 0.00 | 0.00 | 93 | 1012.4 |
| 20260906062811 | 25 | 113 | 0.0 | 3.2 | 0.00 | 0.00 | 0.00 | 93 | 1012.4 |
| 20260906062315 | 25 | 103 | 0.0 | 3.2 | 0.00 | 0.00 | 0.00 | 93 | 1012.3 |
| 20260906061820 | 25 | 109 | 0.0 | 3.2 | 0.00 | 0.00 | 0.00 | 93 | 1012.2 |
| 20260906061330 | 25 | 124 | 0.0 | 3.2 | 0.00 | 0.00 | 0.00 | 93 | 1012.2 |
| 20260906060815 | 25 | 124 | 1.6 | 6.4 | 0.00 | 0.00 | 0.00 | 93 | 1012.2 |
| 20260906060322 | 25 | 133 | 1.6 | 6.4 | 0.00 | 0.00 | 0.00 | 93 | 1012.2 |
| 20260906055829 | 25 | 167 | 3.2 | 8.0 | 0.00 | 0.00 | 0.00 | 93 | 1012.3 |
| 20260906055317 | 25 | 124 | 1.6 | 8.0 | 0.00 | 0.00 | 0.00 | 93 | 1012.3 |
| 20260906054824 | 25 | 167 | 3.2 | 8.0 | 0.00 | 0.00 | 0.00 | 93 | 1012.1 |
| 20260906054331 | 25 | 173 | 1.6 | 3.2 | 0.00 | 0.00 | 0.00 | 92 | 1012.1 |
| 20260906053817 | 25 | 93 | 0.0 | 3.2 | 0.00 | 0.00 | 0.00 | 92 | 1012.1 |
| 20260906053324 | 25 | 101 | 1.6 | 3.2 | 0.00 | 0.00 | 0.00 | 92 | 1012.2 |
| 20260906052829 | 25 | 94 | 0.0 | 3.2 | 0.00 | 0.00 | 0.00 | 92 | 1012.1 |
| 20260906052318 | 25 | 113 | 0.0 | 3.2 | 0.00 | 0.00 | 0.00 | 92 | 1012.1 |
| 20260906051824 | 25 | 175 | 0.0 | 4.8 | 0.00 | 0.00 | 0.00 | 92 | 1012.1 |
| 20260906051330 | 25 | 165 | 3.2 | 8.0 | 0.00 | 0.00 | 0.00 | 92 | 1012.1 |
| 20260906050814 | 25 | 165 | 4.8 | 8.0 | 0.00 | 0.00 | 0.00 | 92 | 1012.0 |
| 20260906050321 | 25 | 163 | 1.6 | 4.8 | 0.00 | 0.00 | 0.00 | 92 | 1012.1 |
| 20260906045826 | 25 | 169 | 1.6 | 4.8 | 0.00 | 0.00 | 0.00 | 92 | 1012.2 |
| 20260906045314 | 25 | 161 | 1.6 | 4.8 | 0.00 | 0.00 | 0.00 | 92 | 1012.3 |
| 20260906044819 | 25 | 186 | 1.6 | 8.0 | 0.00 | 0.00 | 0.00 | 91 | 1012.3 |
| 20260906044327 | 25 | 69 | 1.6 | 8.0 | 0.00 | 0.00 | 0.00 | 91 | 1012.2 |
| 20260906043814 | 25 | 118 | 3.2 | 6.4 | 0.00 | 0.00 | 0.00 | 91 | 1012.2 |
| 20260906043321 | 26 | 138 | 1.6 | 4.8 | 0.00 | 0.00 | 0.00 | 91 | 1012.3 |
| 20260906042825 | 26 | 85 | 0.0 | 4.8 | 0.00 | 0.00 | 0.00 | 91 | 1012.3 |
| 20260906042314 | 26 | 194 | 1.6 | 4.8 | 0.00 | 0.00 | 0.00 | 91 | 1012.3 |
| 20260906041820 | 26 | 161 | 0.0 | 3.2 | 0.00 | 0.00 | 0.00 | 91 | 1012.3 |
| 20260906041329 | 26 | 184 | 1.6 | 3.2 | 0.00 | 0.00 | 0.00 | 91 | 1012.3 |
| 20260906040815 | 26 | 144 | 0.0 | 6.4 | 0.00 | 0.00 | 0.00 | 90 | 1012.3 |
| 20260906040322 | 26 | 161 | 0.0 | 6.4 | 0.00 | 0.00 | 0.00 | 90 | 1012.3 |
| 20260906035825 | 26 | 150 | 1.6 | 4.8 | 0.00 | 0.00 | 0.00 | 90 | 1012.2 |
| 20260906035314 | 26 | 133 | 3.2 | 4.8 | 0.00 | 0.00 | 0.00 | 90 | 1012.2 |
| 20260906034820 | 26 | 198 | 1.6 | 4.8 | 0.00 | 0.00 | 0.00 | 90 | 1012.2 |
| 20260906034329 | 26 | 173 | 1.6 | 6.4 | 0.00 | 0.00 | 0.00 | 90 | 1012.1 |
| 20260906033817 | 26 | 99 | 0.0 | 6.4 | 0.00 | 0.00 | 0.00 | 90 | 1012.1 |
| 20260906033325 | 26 | 88 | 0.0 | 6.4 | 0.00 | 0.00 | 0.00 | 90 | 1012.2 |
| 20260906032812 | 26 | 120 | 0.0 | 6.4 | 0.00 | 0.00 | 0.00 | 90 | 1012.2 |
| 20260906032321 | 26 | 109 | 0.0 | 1.6 | 0.00 | 0.00 | 0.00 | 90 | 1012.2 |
| 20260906031821 | 26 | 153 | 0.0 | 0.0 | 0.00 | 0.00 | 0.00 | 90 | 1012.1 |
| 20260906031328 | 26 | 117 | 0.0 | 0.0 | 0.00 | 0.00 | 0.00 | 90 | 1012.1 |
| 20260906030835 | 26 | 123 | 0.0 | 0.0 | 0.00 | 0.00 | 0.00 | 90 | 1012.0 |
| 20260906030341 | 26 | 124 | 0.0 | 0.0 | 0.00 | 0.00 | 0.00 | 89 | 1012.0 |
| 20260906025846 | 26 | 190 | 0.0 | 0.0 | 0.00 | 0.00 | 0.00 | 89 | 1011.9 |
| 20260906025337 | 26 | 186 | 0.0 | 0.0 | 0.00 | 0.00 | 0.00 | 89 | 1011.8 |
| 20260906024842 | 26 | 126 | 0.0 | 0.0 | 0.00 | 0.00 | 0.00 | 89 | 1011.6 |
| 20260906024349 | 26 | 93 | 0.0 | 3.2 | 0.00 | 0.00 | 0.00 | 89 | 1011.7 |
| 20260906023833 | 26 | 167 | 0.0 | 3.2 | 0.00 | 0.00 | 0.00 | 89 | 1011.6 |
| 20260906023338 | 26 | 186 | 1.6 | 3.2 | 0.00 | 0.00 | 0.00 | 89 | 1011.5 |
| 20260906022843 | 26 | 145 | 0.0 | 0.0 | 0.00 | 0.00 | 0.00 | 89 | 1011.5 |
| 20260906022347 | 26 | 145 | 0.0 | 0.0 | 0.00 | 0.00 | 0.00 | 88 | 1011.3 |
| 20260906021830 | 27 | 145 | 0.0 | 3.2 | 0.00 | 0.00 | 0.00 | 88 | 1011.2 |
| 20260906021319 | 27 | 145 | 0.0 | 3.2 | 0.00 | 0.00 | 0.00 | 88 | 1011.2 |
| 20260906020825 | 27 | 145 | 0.0 | 0.0 | 0.00 | 0.00 | 0.00 | 87 | 1011.2 |
| 20260906020332 | 27 | 145 | 0.0 | 0.0 | 0.00 | 0.00 | 0.00 | 87 | 1011.2 |
| 20260906015819 | 27 | 145 | 0.0 | 0.0 | 0.00 | 0.00 | 0.00 | 86 | 1011.0 |
| 20260906015327 | 27 | 145 | 0.0 | 0.0 | 0.00 | 0.00 | 0.00 | 86 | 1010.9 |
| 20260906014814 | 27 | 145 | 0.0 | 0.0 | 0.00 | 0.00 | 0.00 | 85 | 1010.9 |
| 20260906014323 | 27 | 145 | 0.0 | 0.0 | 0.00 | 0.00 | 0.00 | 85 | 1010.7 |
| 20260906013829 | 27 | 145 | 0.0 | 0.0 | 0.00 | 0.00 | 0.00 | 85 | 1010.5 |
| 20260906013318 | 28 | 145 | 0.0 | 0.0 | 0.00 | 0.00 | 0.00 | 84 | 1010.5 |
| 20260906012825 | 28 | 145 | 0.0 | 0.0 | 0.00 | 0.00 | 0.00 | 84 | 1010.4 |
| 20260906012333 | 28 | 145 | 0.0 | 0.0 | 0.00 | 0.00 | 0.00 | 83 | 1010.3 |
| 20260906011818 | 28 | 145 | 0.0 | 0.0 | 0.00 | 0.00 | 0.00 | 83 | 1010.3 |
| 20260906011328 | 28 | 145 | 0.0 | 0.0 | 0.00 | 0.00 | 0.00 | 82 | 1010.3 |
| 20260906010815 | 28 | 145 | 0.0 | 0.0 | 0.00 | 0.00 | 0.00 | 82 | 1010.4 |
| 20260906010320 | 29 | 145 | 0.0 | 0.0 | 0.00 | 0.00 | 0.00 | 81 | 1010.3 |
| 20260906005827 | 29 | 145 | 0.0 | 0.0 | 0.00 | 0.00 | 0.00 | 80 | 1010.4 |
| 20260906005316 | 29 | 145 | 0.0 | 0.0 | 0.00 | 0.00 | 0.00 | 80 | 1010.4 |
| 20260906004823 | 30 | 145 | 0.0 | 0.0 | 0.00 | 0.00 | 0.00 | 79 | 1010.4 |
| 20260906004332 | 30 | 145 | 0.0 | 0.0 | 0.00 | 0.00 | 0.00 | 78 | 1010.5 |
| 20260906003818 | 30 | 145 | 0.0 | 0.0 | 0.00 | 0.00 | 0.00 | 78 | 1010.4 |
| 20260906003328 | 30 | 145 | 0.0 | 0.0 | 0.00 | 0.00 | 0.00 | 77 | 1010.4 |
| 20260906002815 | 30 | 147 | 0.0 | 0.0 | 0.00 | 0.00 | 0.00 | 77 | 1010.4 |
| 20260906002322 | 30 | 122 | 0.0 | 3.2 | 0.00 | 0.00 | 0.00 | 77 | 1010.4 |
| 20260906001826 | 30 | 167 | 0.0 | 3.2 | 0.00 | 0.00 | 0.00 | 76 | 1010.4 |
| 20260906001332 | 30 | 148 | 1.6 | 4.8 | 0.00 | 0.00 | 0.00 | 76 | 1010.4 |
| 20260906000838 | 30 | 167 | 3.2 | 4.8 | 0.00 | 0.00 | 0.00 | 76 | 1010.4 |
| 20260906000342 | 31 | 183 | 1.6 | 4.8 | 0.00 | 0.00 | 0.00 | 75 | 1010.3 |
| 20260905235847 | 31 | 180 | 1.6 | 6.4 | 0.00 | 0.00 | 0.00 | 74 | 1010.2 |
| 20260905235354 | 31 | 171 | 3.2 | 8.0 | 0.00 | 0.00 | 0.00 | 74 | 1010.2 |
| 20260905234839 | 31 | 140 | 1.6 | 8.0 | 0.00 | 0.00 | 0.00 | 74 | 1010.3 |
| 20260905234344 | 31 | 150 | 3.2 | 6.4 | 0.00 | 0.00 | 0.00 | 74 | 1010.3 |
| 20260905233849 | 31 | 146 | 3.2 | 6.4 | 0.00 | 0.00 | 0.00 | 73 | 1010.3 |
| 20260905233355 | 31 | 125 | 4.8 | 8.0 | 0.00 | 0.00 | 0.00 | 72 | 1010.2 |
| 20260905232840 | 31 | 140 | 4.8 | 11.3 | 0.00 | 0.00 | 0.00 | 72 | 1010.1 |
| 20260905232348 | 31 | 167 | 4.8 | 11.3 | 0.00 | 0.00 | 0.00 | 71 | 1010.0 |
| 20260905231852 | 31 | 173 | 4.8 | 11.3 | 0.00 | 0.00 | 0.00 | 71 | 1010.1 |
| 20260905231340 | 31 | 202 | 6.4 | 11.3 | 0.00 | 0.00 | 0.00 | 70 | 1010.2 |
| 20260905230846 | 31 | 243 | 4.8 | 12.9 | 0.00 | 0.00 | 0.00 | 70 | 1010.2 |
| 20260905230332 | 31 | 137 | 4.8 | 17.7 | 0.00 | 0.00 | 0.00 | 70 | 1010.2 |
| 20260905225819 | 31 | 98 | 8.0 | 17.7 | 0.00 | 0.00 | 0.00 | 69 | 1010.1 |
| 20260905225327 | 31 | 206 | 9.7 | 17.7 | 0.00 | 0.00 | 0.00 | 69 | 1010.0 |
| 20260905224814 | 32 | 189 | 8.0 | 14.5 | 0.00 | 0.00 | 0.00 | 69 | 1009.9 |
| 20260905224322 | 32 | 204 | 8.0 | 17.7 | 0.00 | 0.00 | 0.00 | 69 | 1010.0 |
| 20260905223827 | 32 | 159 | 8.0 | 19.3 | 0.00 | 0.00 | 0.00 | 70 | 1010.0 |
| 20260905223314 | 32 | 143 | 8.0 | 19.3 | 0.00 | 0.00 | 0.00 | 69 | 1010.1 |
| 20260905222819 | 32 | 165 | 8.0 | 22.5 | 0.00 | 0.00 | 0.00 | 68 | 1010.1 |
| 20260905222328 | 32 | 173 | 9.7 | 16.1 | 0.00 | 0.00 | 0.00 | 69 | 1010.2 |
| 20260905221815 | 32 | 181 | 11.3 | 19.3 | 0.00 | 0.00 | 0.00 | 68 | 1010.1 |
| 20260905221320 | 32 | 219 | 8.0 | 19.3 | 0.00 | 0.00 | 0.00 | 68 | 1010.1 |
| 20260905220825 | 32 | 147 | 8.0 | 17.7 | 0.00 | 0.00 | 0.00 | 68 | 1010.0 |
| 20260905220329 | 32 | 217 | 9.7 | 19.3 | 0.00 | 0.00 | 0.00 | 68 | 1009.9 |
| 20260905215819 | 32 | 171 | 11.3 | 19.3 | 0.00 | 0.00 | 0.00 | 67 | 1009.9 |
| 20260905215325 | 32 | 134 | 8.0 | 19.3 | 0.00 | 0.00 | 0.00 | 68 | 1009.9 |
| 20260905214815 | 32 | 130 | 9.7 | 19.3 | 0.00 | 0.00 | 0.00 | 67 | 1009.8 |
| 20260905214320 | 32 | 154 | 11.3 | 19.3 | 0.00 | 0.00 | 0.00 | 66 | 1009.8 |
| 20260905213827 | 32 | 146 | 11.3 | 22.5 | 0.00 | 0.00 | 0.00 | 67 | 1009.8 |
| 20260905213315 | 32 | 150 | 11.3 | 19.3 | 0.00 | 0.00 | 0.00 | 67 | 1009.9 |
| 20260905212822 | 32 | 132 | 11.3 | 19.3 | 0.00 | 0.00 | 0.00 | 65 | 1010.1 |
| 20260905212352 | 32 | 186 | 9.7 | 24.1 | 0.00 | 0.00 | 0.00 | 65 | 1010.2 |
| 20260905211838 | 32 | 136 | 9.7 | 24.1 | 0.00 | 0.00 | 0.00 | 66 | 1010.3 |
| 20260905211326 | 32 | 157 | 9.7 | 25.7 | 0.00 | 0.00 | 0.00 | 66 | 1010.3 |
| 20260905210832 | 32 | 160 | 12.9 | 25.7 | 0.00 | 0.00 | 0.00 | 67 | 1010.3 |
| 20260905210318 | 32 | 186 | 11.3 | 22.5 | 0.00 | 0.00 | 0.00 | 66 | 1010.4 |
| 20260905205822 | 33 | 190 | 9.7 | 16.1 | 0.00 | 0.00 | 0.00 | 66 | 1010.6 |
| 20260905205331 | 33 | 123 | 8.0 | 16.1 | 0.00 | 0.00 | 0.00 | 65 | 1010.7 |
| 20260905204817 | 32 | 184 | 8.0 | 22.5 | 0.00 | 0.00 | 0.00 | 66 | 1010.8 |
| 20260905204327 | 32 | 189 | 9.7 | 22.5 | 0.00 | 0.00 | 0.00 | 65 | 1010.8 |
| 20260905203813 | 32 | 182 | 11.3 | 24.1 | 0.00 | 0.00 | 0.00 | 65 | 1010.9 |
| 20260905203321 | 32 | 170 | 9.7 | 22.5 | 0.00 | 0.00 | 0.00 | 65 | 1010.9 |
| 20260905202826 | 32 | 178 | 11.3 | 22.5 | 0.00 | 0.00 | 0.00 | 63 | 1011.0 |
| 20260905202315 | 32 | 160 | 9.7 | 22.5 | 0.00 | 0.00 | 0.00 | 62 | 1011.1 |
| 20260905201821 | 32 | 194 | 11.3 | 22.5 | 0.00 | 0.00 | 0.00 | 60 | 1011.1 |
| 20260905201331 | 32 | 334 | 9.7 | 19.3 | 0.00 | 0.00 | 0.00 | 61 | 1011.3 |
| 20260905200816 | 32 | 79 | 8.0 | 24.1 | 0.00 | 0.00 | 0.00 | 60 | 1011.5 |
| 20260905200326 | 32 | 130 | 12.9 | 24.1 | 0.00 | 0.00 | 0.00 | 61 | 1011.7 |
| 20260905195831 | 32 | 134 | 6.4 | 19.3 | 0.00 | 0.00 | 0.00 | 62 | 1011.7 |